Regional Weather Roundup
Issued by NWS

Home | Current Version | Previous Version | Graphics & Text | Print | Product List | Glossary On
Versions: 1 2 3 4 5 6 7 8 9 10 11 12 13 14 15 16 17 18 19 20 21 22 23 24 25 26 27 28 29 30 31 32 33 34 35 36 37 38 39 40 41 42 43 44 45 46 47 48 49 50
599
ASUS44 KJAN 272210
RWRMS

MISSISSIPPI HOURLY WEATHER ROUNDUP
NATIONAL WEATHER SERVICE JACKSON MS
500 PM CDT WED AUG 27 2014

NOTE: "FAIR: INDICATES FEW OR NO CLOUDS BELOW 12,000 FEET WITH NO
SIGNIFICANT WEATHER AND/OR OBSTRUCTIONS TO VISIBILITY.

MSZ001>002-007>008-010>013-018>021-025>028-034>036-272300-
NORTHWEST MISSISSIPPI

CITY           SKY/WX    TMP DP  RH WIND       PRES   REMARKS
CLARKSDALE     FAIR      91  68  46 CALM      30.03S HX  95
CLEVELAND      FAIR      91  67  45 N5        30.00F HX  95
GREENWOOD      MOSUNNY   91  66  43 N5        30.01F HX  93
GREENVILLE     SUNNY     93  64  38 NE6       30.00F HX  94
GRENADA        FAIR      90  63  40 E6        30.02S HX  90
OLIVE BRANCH   MOSUNNY   90  66  45 NE7       30.04F HX  92
OXFORD         FAIR      90  59  35 CALM      30.05F
TUNICA         CLEAR     90  63  40 NE5       30.03S HX  90
$$

MSZ003>006-009-014>017-022>024-029>033-037>039-272300-
NORTHEAST MISSISSIPPI

CITY           SKY/WX    TMP DP  RH WIND       PRES   REMARKS
BELMONT        FAIR      88  65  45 CALM      30.04F
COLUMBUS AFB   MOSUNNY   92  61  36 N6        30.01F HX  92
CORINTH        FAIR      90  63  40 VRB3      30.03F HX  90
GOLDN TRIANGLE MOSUNNY   93  61  33 N5        30.02F HX  93
STARKVILLE     CLOUDY    88  61  40 N3        30.02S
TUPELO         SUNNY     90  61  37 E5        30.03F HX  90
$$

MSZ040-058-272300-
CENTRAL MISSISSIPPI

CITY           SKY/WX    TMP DP  RH WIND       PRES   REMARKS
JACKSON INTL   MOSUNNY   93  62  35 N10       30.00F HX  93
JACKSON HAWKNS SUNNY     92  60  34 NE8       30.00F HX  91
MERIDIAN KEY   MOSUNNY   91  56  30 N8        30.00S
MERIDIAN NAS   MOSUNNY   93  58  30 NE6       30.00F HX  92
RAYMOND        FAIR      91  86  84 N5        30.00S HX 122
VICKSBURG      SUNNY     94  66  39 NE7       29.99F HX  97
$$

MSZ059>079-272300-
SOUTH MISSISSIPPI

CITY           SKY/WX    TMP DP  RH WIND       PRES   REMARKS
BROOKHAVEN     FAIR      91  68  46 E3        30.00F HX  95
COLUMBIA       FAIR      93  70  46 MISG      29.96F HX  99
HATTIESBURG    MOSUNNY   91  66  43 NE8       29.99S HX  93
MCCOMB         MOSUNNY   92  66  42 NE3       29.98F HX  94
NATCHEZ        PTSUNNY   90  72  55 N8        29.99S HX  96
PINE BELT      MOSUNNY   91  63  38 NE8       30.01S HX  92
$$

MSZ080>082-272300-
COASTAL MISSISSIPPI

CITY           SKY/WX    TMP DP  RH WIND       PRES   REMARKS
BAY ST LOUIS   MOSUNNY  N/A N/A N/A S5        29.98F
BILOXI         PTSUNNY   87  74  67 SE10      29.98F HX  95
PASCAGOULA     PTSUNNY   88  71  57 SE13      29.98F HX  94
GULFPORT       PTSUNNY   88  75  65 SE13      29.97F HX  97
$$



USA.gov is the U.S. government's official web portal to all federal, state and local government web resources and services.